Savanna, IA

11:43 PM CDT on June 26, 2017 (GMT -0500)
Tri-Township

Weather History for KSFY - November, 2013

Change the Weather History Date:

Friday, November 8, 2013

  Actual Average (KCWI) Record (KCWI)
Temperature  
Mean Temperature 38 °F -  
Max Temperature 50 °F 51 °F 77 °F (1999)
Min Temperature 25 °F 33 °F 6 °F (1991)
Degree Days  
Heating Degree Days 28    
Moisture  
Dew Point 29 °F    
Average Humidity 69    
Maximum Humidity 95    
Minimum Humidity 43    
Precipitation  
Precipitation 0.00 in - - ()
Sea Level Pressure  
Sea Level Pressure 30.14 in    
Wind  
Wind Speed 7 mph (SSE)    
Max Wind Speed 23 mph    
Max Gust Speed 29 mph    
Visibility 10 miles    
Events      
Averages and records for this station are not official NWS values.
T = Trace of Precipitation, MM = Missing Value Source: NWS Daily Summary

Daily Weather History Graph

Daily Weather History Graph

Search for Another Location

Airport or City:

Trip Planner

Search our weather history database for the weather conditions in past years. The results will help you decide how hot, cold, wet, or windy it might be!

Date:

Astronomy

Nov. 08, 2013 Rise Set
Actual Time 6:42 AM CST 4:45 PM CST
Civil Twilight 6:12 AM CST 5:15 PM CST
Nautical Twilight 5:39 AM CST 5:48 PM CST
Astronomical Twilight 5:06 AM CST 6:21 PM CST
Moon 11:37 AM CST (11/8) 10:07 PM CST (11/8)
Length of Visible Light 11h 02m
Length of Day
10h 03m
Waxing Crescent, 33% of the Moon is Illuminated
Nov 8
Waxing Crescent
Nov 9
First Quarter
Nov 17
Full
Nov 25
Last Quarter
Dec 2
New

Hourly Weather History & Observations

Time (CST) Temp. Windchill Dew Point Humidity Pressure Visibility Wind Dir Wind Speed Gust Speed Precip Events Conditions
12:15 AM 35.1 °F 31.0 °F 28.8 °F 78% 30.27 in 10.0 mi West 4.6 mph - N/A   Scattered Clouds
12:35 AM 34.7 °F 31.8 °F 28.2 °F 77% 30.28 in 10.0 mi West 3.5 mph - N/A   Scattered Clouds
12:55 AM 33.8 °F 30.8 °F 27.3 °F 77% 30.28 in 10.0 mi NW 3.5 mph - N/A   Clear
1:15 AM 32.2 °F - 27.1 °F 82% 30.27 in 10.0 mi Calm Calm - N/A   Clear
1:35 AM 32.0 °F - 27.1 °F 82% 30.27 in 10.0 mi Calm Calm - N/A   Clear
1:55 AM 32.0 °F - 27.5 °F 83% 30.28 in 10.0 mi Calm Calm - N/A   Clear
2:15 AM 30.2 °F - 26.1 °F 85% 30.27 in 10.0 mi Calm Calm - N/A   Clear
2:35 AM 32.0 °F - 27.5 °F 83% 30.27 in 10.0 mi Calm Calm - N/A   Clear
2:55 AM 30.7 °F 27.3 °F 27.3 °F 87% 30.27 in 10.0 mi West 3.5 mph - N/A   Clear
3:15 AM 31.8 °F 26.2 °F 28.0 °F 86% 30.27 in 10.0 mi WSW 5.8 mph - N/A   Clear
3:35 AM 32.0 °F 28.7 °F 27.9 °F 85% 30.28 in 10.0 mi SW 3.5 mph - N/A   Clear
3:55 AM 32.5 °F - 27.1 °F 80% 30.28 in 10.0 mi Calm Calm - N/A   Clear
4:15 AM 26.6 °F 21.2 °F 23.0 °F 86% 30.28 in 10.0 mi SE 4.6 mph - N/A   Clear
4:35 AM 27.9 °F 21.5 °F 26.1 °F 93% 30.29 in 10.0 mi SSE 5.8 mph - N/A   Clear
4:55 AM 27.5 °F 21.1 °F 25.5 °F 92% 30.29 in 10.0 mi SSE 5.8 mph - N/A   Clear
5:15 AM 26.2 °F 19.6 °F 24.3 °F 92% 30.28 in 10.0 mi South 5.8 mph - N/A   Clear
5:35 AM 26.4 °F 19.8 °F 24.8 °F 94% 30.29 in 10.0 mi South 5.8 mph - N/A   Clear
5:55 AM 26.6 °F 22.6 °F 25.0 °F 94% 30.28 in 10.0 mi SSE 3.5 mph - N/A   Clear
6:15 AM 25.7 °F 20.1 °F 23.9 °F 93% 30.28 in 10.0 mi SE 4.6 mph - N/A   Clear
6:35 AM 25.7 °F 19.0 °F 24.1 °F 94% 30.29 in 10.0 mi SSE 5.8 mph - N/A   Clear
6:55 AM 25.3 °F 19.7 °F 24.1 °F 95% 30.30 in 7.0 mi SSW 4.6 mph - N/A   Clear
7:15 AM 27.5 °F 23.6 °F 26.1 °F 94% 30.31 in 10.0 mi SE 3.5 mph - N/A   Clear
7:35 AM 28.8 °F - 26.8 °F 92% 30.31 in 10.0 mi Calm Calm - N/A   Clear
7:55 AM 30.7 °F 27.3 °F 28.4 °F 91% 30.31 in 7.0 mi SE 3.5 mph - N/A   Clear
8:15 AM 32.2 °F 28.9 °F 29.1 °F 88% 30.30 in 10.0 mi SSE 3.5 mph - N/A   Clear
8:35 AM 33.6 °F 29.4 °F 29.5 °F 85% 30.29 in 10.0 mi SE 4.6 mph - N/A   Clear
8:55 AM 34.9 °F 32.0 °F 30.2 °F 83% 30.28 in 10.0 mi SSE 3.5 mph - N/A   Clear
9:15 AM 36.1 °F 33.5 °F 30.6 °F 80% 30.28 in 10.0 mi SSE 3.5 mph - N/A   Clear
9:35 AM 36.7 °F 34.1 °F 30.4 °F 78% 30.27 in 10.0 mi SSE 3.5 mph - N/A   Clear
9:55 AM 38.3 °F 33.9 °F 31.1 °F 75% 30.27 in 10.0 mi South 5.8 mph - N/A   Clear
10:15 AM 40.1 °F 35.3 °F 30.2 °F 68% 30.27 in 10.0 mi South 6.9 mph - N/A   Clear
10:35 AM 41.0 °F 38.0 °F 31.3 °F 68% 30.26 in 10.0 mi South 4.6 mph - N/A   Clear
10:55 AM 42.1 °F 37.7 °F 31.6 °F 67% 30.25 in 10.0 mi SSE 6.9 mph - N/A   Clear
11:15 AM 43.9 °F 39.3 °F 31.6 °F 62% 30.25 in 10.0 mi SSE 8.1 mph - N/A   Clear
11:35 AM 44.8 °F 39.9 °F 30.0 °F 56% 30.23 in 10.0 mi SSE 9.2 mph - N/A   Clear
11:55 AM 45.5 °F 40.8 °F 29.8 °F 54% 30.20 in 10.0 mi SSE 9.2 mph - N/A   Clear
12:15 PM 46.9 °F - 29.1 °F 50% 30.19 in 10.0 mi South 9.2 mph - N/A   Clear
12:35 PM 48.2 °F - 29.7 °F 49% 30.18 in 10.0 mi SSE 15.0 mph 18.4 mph N/A   Clear
12:55 PM 50.2 °F - 31.1 °F 48% 30.16 in 10.0 mi SSE 12.7 mph - N/A   Clear
1:15 PM 50.0 °F - 28.4 °F 43% 30.14 in 10.0 mi SSE 16.1 mph - N/A   Clear
1:35 PM 49.3 °F - 28.2 °F 44% 30.13 in 10.0 mi SSE 17.3 mph 25.3 mph N/A   Clear
1:55 PM 48.6 °F - 29.3 °F 47% 30.12 in 10.0 mi SSE 18.4 mph 24.2 mph N/A   Clear
2:15 PM 47.8 °F - 29.5 °F 49% 30.11 in 10.0 mi SSE 16.1 mph 24.2 mph N/A   Clear
2:35 PM 47.8 °F - 30.0 °F 50% 30.11 in 10.0 mi SSE 16.1 mph 20.7 mph N/A   Scattered Clouds
2:55 PM 47.8 °F - 28.4 °F 47% 30.08 in 10.0 mi SSE 18.4 mph 21.9 mph N/A   Scattered Clouds
3:15 PM 47.8 °F - 28.0 °F 46% 30.07 in 10.0 mi SSE 18.4 mph 25.3 mph N/A   Scattered Clouds
3:35 PM 46.9 °F - 29.1 °F 50% 30.05 in 10.0 mi SSE 15.0 mph - N/A   Clear
3:55 PM 46.4 °F 39.8 °F 29.3 °F 51% 30.04 in 10.0 mi SSE 16.1 mph 19.6 mph N/A   Clear
4:15 PM 45.7 °F 39.1 °F 29.5 °F 53% 30.03 in 10.0 mi SSE 15.0 mph - N/A   Clear
4:35 PM 44.4 °F 37.9 °F 30.2 °F 57% 30.01 in 10.0 mi SE 13.8 mph - N/A   Clear
4:55 PM 44.4 °F 37.5 °F 30.7 °F 59% 29.99 in 10.0 mi SE 15.0 mph - N/A   Clear
5:15 PM 44.8 °F 37.7 °F 31.1 °F 59% 29.98 in 10.0 mi SE 16.1 mph 23.0 mph N/A   Clear
5:35 PM 45.0 °F 37.1 °F 31.1 °F 58% 29.98 in 10.0 mi SSE 19.6 mph 23.0 mph N/A   Clear
5:55 PM 44.6 °F 37.8 °F 31.1 °F 59% 29.99 in 10.0 mi SSE 15.0 mph - N/A   Clear
6:15 PM 44.1 °F 37.4 °F 31.6 °F 62% 30.01 in 10.0 mi SSE 13.8 mph 19.6 mph N/A   Clear
6:35 PM 43.5 °F 37.5 °F 32.0 °F 64% 30.00 in 10.0 mi SSE 11.5 mph - N/A   Clear
6:55 PM 43.7 °F 38.1 °F 32.0 °F 63% 29.99 in 10.0 mi SSE 10.4 mph - N/A   Clear
7:15 PM 44.1 °F 39.0 °F 32.2 °F 63% 29.99 in 10.0 mi SSE 9.2 mph - N/A   Clear
7:35 PM 44.8 °F 39.0 °F 32.4 °F 62% 29.99 in 10.0 mi SSE 11.5 mph - N/A   Clear
7:55 PM 44.8 °F 39.4 °F 32.9 °F 63% 29.97 in 10.0 mi SSE 10.4 mph - N/A   Clear
8:15 PM 45.0 °F 39.7 °F 32.9 °F 63% 29.96 in 10.0 mi SSE 10.4 mph - N/A   Scattered Clouds
8:35 PM 45.5 °F 39.6 °F 32.9 °F 61% 29.96 in 10.0 mi SSE 12.7 mph - N/A   Scattered Clouds
8:55 PM 46.2 °F 40.1 °F 32.9 °F 60% 29.94 in 10.0 mi SSE 13.8 mph 18.4 mph N/A   Overcast
9:15 PM 47.3 °F - 32.7 °F 57% 29.93 in 10.0 mi SSE 15.0 mph - N/A   Mostly Cloudy
9:35 PM 47.7 °F - 32.7 °F 56% 29.92 in 10.0 mi SSE 18.4 mph 23.0 mph N/A   Mostly Cloudy
9:55 PM 47.7 °F - 32.5 °F 56% 29.90 in 10.0 mi South 16.1 mph 25.3 mph N/A   Scattered Clouds
10:15 PM 47.7 °F - 32.9 °F 57% 29.89 in 10.0 mi South 18.4 mph 23.0 mph N/A   Scattered Clouds
10:35 PM 48.2 °F - 32.5 °F 55% 29.88 in 10.0 mi South 18.4 mph 25.3 mph N/A   Scattered Clouds
10:55 PM 48.2 °F - 32.9 °F 55% 29.85 in 10.0 mi South 19.6 mph - N/A   Clear
11:15 PM 48.4 °F - 33.3 °F 56% 29.84 in 10.0 mi South 23.0 mph 28.8 mph N/A   Clear
11:35 PM 48.9 °F - 33.6 °F 56% 29.83 in 10.0 mi South 20.7 mph 27.6 mph N/A   Clear
11:55 PM 48.9 °F - 33.8 °F 56% 29.83 in 10.0 mi South 17.3 mph 21.9 mph N/A   Clear